Cienfuegos, Cuba

8:23 AM CST on December 08, 2019 (GMT -0500)
Jaime Gonzalez

Weather History for MUCF - October, 2019

Change the Weather History Date:

Saturday, October 26, 2019

  Actual Average Record
Temperature  
Mean Temperature 81 °F -  
Max Temperature 89 °F - - ()
Min Temperature 73 °F - - ()
Cooling Degree Days 16    
Growing Degree Days 31 (Base 50)    
Moisture  
Dew Point 75 °F    
Average Humidity 88    
Maximum Humidity 100    
Minimum Humidity 62    
Precipitation  
Precipitation 0.00 in - - ()
Sea Level Pressure  
Sea Level Pressure 29.94 in    
Wind  
Wind Speed 4 mph ()    
Max Wind Speed 10 mph    
Max Gust Speed -    
Visibility 6.2 miles    
Events      
T = Trace of Precipitation, MM = Missing Value Source: Averaged Metar Reports

Daily Weather History Graph

Daily Weather History Graph

Search for Another Location

Airport or City:

Astronomy

Oct. 26, 2019 Rise Set
Actual Time 7:22 AM CDT 6:48 PM CDT
Civil Twilight 6:59 AM CDT 7:11 PM CDT
Nautical Twilight 6:33 AM CDT 7:37 PM CDT
Astronomical Twilight 6:07 AM CDT 8:03 PM CDT
Moon 5:39 AM CDT (10/26) 6:04 PM CDT (10/26)
Length of Visible Light 12h 11m
Length of Day
11h 25m
Waning Crescent, 3% of the Moon is Illuminated
Oct 26
Waning Crescent
Oct 27
New
Nov 4
First Quarter
Nov 12
Full
Nov 19
Last Quarter

Hourly Weather History & Observations

Time (CDT) Temp. Heat Index Dew Point Humidity Pressure Visibility Wind Dir Wind Speed Gust Speed Precip Events Conditions
12:59 AM 73.4 °F - 71.6 °F 94% 29.95 in - Variable 2.3 mph - N/A   Unknown
1:58 AM 73.4 °F - 71.6 °F 94% 29.92 in - East 3.5 mph - N/A   Unknown
2:58 AM 73.4 °F - 73.4 °F 100% 29.92 in - ENE 3.5 mph - N/A   Unknown
3:59 AM 73.4 °F - 71.6 °F 94% 29.92 in - East 3.5 mph - N/A   Unknown
4:59 AM 73.4 °F - 73.4 °F 100% 29.92 in - NE 3.5 mph - N/A   Unknown
5:59 AM 73.4 °F - 73.4 °F 100% 29.92 in - ENE 5.8 mph - N/A   Unknown
6:59 AM 73.4 °F - 73.4 °F 100% 29.92 in - ENE 5.8 mph - N/A   Unknown
7:59 AM 75.2 °F - 73.4 °F 94% 29.92 in - ENE 4.6 mph - N/A   Unknown
8:51 AM 78.8 °F - 77.0 °F 94% - 6.2 mi East 5.8 mph - N/A   Mostly Cloudy
9:51 AM 82.4 °F 90.9 °F 77.0 °F 84% 29.95 in 6.2 mi East 5.8 mph - N/A   Scattered Clouds
10:52 AM 84.2 °F 94.1 °F 77.0 °F 79% 29.98 in 6.2 mi East 4.6 mph - N/A   Mostly Cloudy
11:51 AM 86.0 °F 96.9 °F 77.0 °F 74% 29.98 in 6.2 mi SE 3.5 mph - N/A   Mostly Cloudy
12:50 PM 84.2 °F 90.9 °F 73.4 °F 70% - 6.2 mi South 5.8 mph - N/A   Mostly Cloudy
1:51 PM 89.6 °F 99.8 °F 75.2 °F 62% 29.92 in 6.2 mi South 9.2 mph - N/A   Mostly Cloudy
2:50 PM 86.0 °F 96.9 °F 77.0 °F 74% 29.92 in 6.2 mi South 10.4 mph - N/A   Mostly Cloudy
3:52 PM 84.2 °F 92.3 °F 75.2 °F 74% 29.92 in 6.2 mi South 8.1 mph - N/A   Mostly Cloudy
4:59 PM 82.4 °F 90.9 °F 77.0 °F 84% 29.92 in - SSW 10.4 mph - N/A   Unknown
5:59 PM 82.4 °F 89.5 °F 75.2 °F 79% 29.92 in - South 4.6 mph - N/A   Unknown
6:59 PM 80.6 °F 86.2 °F 75.2 °F 84% 29.92 in - SSW 5.8 mph - N/A   Unknown
7:59 PM 75.2 °F - 75.2 °F 100% 29.98 in - SE 5.8 mph - N/A   Unknown
8:59 PM 73.4 °F - 73.4 °F 100% 30.01 in - SE 3.5 mph - N/A   Unknown
9:58 PM 73.4 °F - 73.4 °F 100% 30.01 in - East 3.5 mph - N/A   Unknown